Time,TemperatureF,DewpointF,PressureIn,WindDirection,WindDirectionDegrees,WindSpeedMPH,WindSpeedGustMPH,Humidity,HourlyPrecipIn,Conditions,Clouds,dailyrainin,SoftwareType,DateUTC
2013-02-01 00:09:00,23.0,14.0,29.66,West,270,2.2,-999.0,68,-99.99,,,0.00,Acu-Link.com,2013-02-01 05:09:00,
2013-02-01 00:24:00,22.5,13.9,29.65,NW,315,2.7,-999.0,69,-99.99,,,0.00,Acu-Link.com,2013-02-01 05:24:00,
2013-02-01 00:40:00,21.9,13.0,29.65,WSW,247,2.7,-999.0,68,-99.99,,,0.00,Acu-Link.com,2013-02-01 05:40:00,
2013-02-01 00:55:00,21.6,12.0,29.66,East,90,0.0,-999.0,66,-99.99,,,0.00,Acu-Link.com,2013-02-01 05:55:00,
2013-02-01 01:10:00,20.7,11.5,29.66,NNW,337,2.2,-999.0,67,-99.99,,,0.00,Acu-Link.com,2013-02-01 06:10:00,
2013-02-01 01:25:00,21.9,10.2,29.66,WNW,292,3.2,-999.0,60,-99.99,,,0.00,Acu-Link.com,2013-02-01 06:25:00,
2013-02-01 01:40:00,20.8,9.9,29.65,West,270,0.0,-999.0,62,-99.99,,,0.00,Acu-Link.com,2013-02-01 06:40:00,
2013-02-01 01:55:00,20.3,9.4,29.64,NNW,337,0.0,-999.0,62,-99.99,,,0.00,Acu-Link.com,2013-02-01 06:55:00,
2013-02-01 02:10:00,19.9,8.7,29.64,East,90,0.0,-999.0,61,-99.99,,,0.00,Acu-Link.com,2013-02-01 07:10:00,
2013-02-01 02:25:00,19.2,9.7,29.65,South,180,2.2,-999.0,66,-99.99,,,0.00,Acu-Link.com,2013-02-01 07:25:00,
2013-02-01 02:40:00,19.6,9.4,29.65,ENE,67,0.0,-999.0,64,-99.99,,,0.00,Acu-Link.com,2013-02-01 07:40:00,
2013-02-01 02:56:00,19.8,8.9,29.65,North,0,0.0,-999.0,62,-99.99,,,0.00,Acu-Link.com,2013-02-01 07:56:00,
2013-02-01 03:11:00,19.9,9.4,29.66,West,270,1.7,-999.0,63,-99.99,,,0.00,Acu-Link.com,2013-02-01 08:11:00,
2013-02-01 03:26:00,19.9,9.7,29.66,SE,135,2.7,-999.0,64,-99.99,,,0.00,Acu-Link.com,2013-02-01 08:26:00,
2013-02-01 03:41:00,18.9,9.4,29.67,WSW,247,2.2,-999.0,66,-99.99,,,0.00,Acu-Link.com,2013-02-01 08:41:00,
2013-02-01 03:56:00,18.9,9.8,29.67,NNW,337,0.0,-999.0,67,-99.99,,,0.00,Acu-Link.com,2013-02-01 08:56:00,
2013-02-01 04:17:00,19.4,9.6,29.67,NE,45,0.0,-999.0,65,-99.99,,,0.00,Acu-Link.com,2013-02-01 09:17:00,
2013-02-01 04:32:00,18.9,9.8,29.68,South,180,0.0,-999.0,67,-99.99,,,0.00,Acu-Link.com,2013-02-01 09:32:00,
2013-02-01 04:47:00,18.9,9.8,29.68,SSE,157,0.0,-999.0,67,-99.99,,,0.00,Acu-Link.com,2013-02-01 09:47:00,
2013-02-01 05:02:00,18.0,10.2,29.70,East,90,0.0,-999.0,71,-99.99,,,0.00,Acu-Link.com,2013-02-01 10:02:00,
2013-02-01 05:17:00,18.5,10.4,29.70,SE,135,0.0,-999.0,70,-99.99,,,0.00,Acu-Link.com,2013-02-01 10:17:00,
2013-02-01 05:32:00,19.2,10.1,29.70,SW,225,3.7,-999.0,67,-99.99,,,0.00,Acu-Link.com,2013-02-01 10:32:00,
2013-02-01 05:47:00,20.3,10.4,29.70,SSE,157,3.2,-999.0,65,-99.99,,,0.00,Acu-Link.com,2013-02-01 10:47:00,
2013-02-01 06:03:00,19.6,10.1,29.72,SE,135,0.0,-999.0,66,-99.99,,,0.00,Acu-Link.com,2013-02-01 11:03:00,
2013-02-01 06:18:00,20.5,10.3,29.73,SSE,157,2.2,-999.0,64,-99.99,,,0.00,Acu-Link.com,2013-02-01 11:18:00,
2013-02-01 06:33:00,20.7,9.8,29.75,SSW,202,1.7,-999.0,62,-99.99,,,0.00,Acu-Link.com,2013-02-01 11:33:00,
2013-02-01 06:48:00,20.8,9.9,29.77,ENE,67,3.2,-999.0,62,-99.99,,,0.00,Acu-Link.com,2013-02-01 11:48:00,
2013-02-01 07:03:00,20.7,11.8,29.78,East,90,2.7,-999.0,68,-99.99,,,0.00,Acu-Link.com,2013-02-01 12:03:00,
2013-02-01 07:18:00,20.3,12.7,29.79,SSE,157,2.2,-999.0,72,-99.99,,,0.00,Acu-Link.com,2013-02-01 12:18:00,
2013-02-01 07:33:00,19.9,12.7,29.79,NNW,337,1.7,-999.0,73,-99.99,,,0.00,Acu-Link.com,2013-02-01 12:33:00,
2013-02-01 07:48:00,19.8,12.6,29.80,WNW,292,2.7,-999.0,73,-99.99,,,0.00,Acu-Link.com,2013-02-01 12:48:00,
2013-02-01 08:03:00,19.9,11.4,29.81,ESE,112,3.7,-999.0,69,-99.99,,,0.00,Acu-Link.com,2013-02-01 13:03:00,
2013-02-01 08:18:00,20.3,11.5,29.82,South,180,2.7,-999.0,68,-99.99,,,0.00,Acu-Link.com,2013-02-01 13:18:00,
2013-02-01 08:34:00,21.0,11.8,29.82,West,270,2.7,-999.0,67,-99.99,,,0.00,Acu-Link.com,2013-02-01 13:34:00,
2013-02-01 08:49:00,20.8,11.6,29.83,West,270,4.2,-999.0,67,-99.99,,,0.00,Acu-Link.com,2013-02-01 13:49:00,
2013-02-01 09:04:00,20.7,11.5,29.83,West,270,8.3,-999.0,67,-99.99,,,0.00,Acu-Link.com,2013-02-01 14:04:00,
2013-02-01 09:19:00,21.2,11.3,29.83,East,90,3.2,-999.0,65,-99.99,,,0.00,Acu-Link.com,2013-02-01 14:19:00,
2013-02-01 09:34:00,21.6,11.3,29.85,NNE,22,3.2,-999.0,64,-99.99,,,0.00,Acu-Link.com,2013-02-01 14:34:00,
2013-02-01 09:49:00,21.7,10.0,29.85,South,180,2.7,-999.0,60,-99.99,,,0.00,Acu-Link.com,2013-02-01 14:49:00,
2013-02-01 10:04:00,22.3,10.2,29.86,NW,315,6.8,-999.0,59,-99.99,,,0.00,Acu-Link.com,2013-02-01 15:04:00,
2013-02-01 10:19:00,21.7,10.7,29.86,NE,45,15.0,-999.0,62,-99.99,,,0.00,Acu-Link.com,2013-02-01 15:19:00,
2013-02-01 10:34:00,22.3,10.2,29.87,NE,45,13.5,-999.0,59,-99.99,,,0.00,Acu-Link.com,2013-02-01 15:34:00,
2013-02-01 10:50:00,22.6,9.7,29.88,West,270,7.3,-999.0,57,-99.99,,,0.00,Acu-Link.com,2013-02-01 15:50:00,
2013-02-01 11:05:00,22.6,10.5,29.88,NNE,22,10.9,-999.0,59,-99.99,,,0.00,Acu-Link.com,2013-02-01 16:05:00,
2013-02-01 11:20:00,22.5,10.4,29.88,WNW,292,4.7,-999.0,59,-99.99,,,0.00,Acu-Link.com,2013-02-01 16:20:00,
2013-02-01 11:35:00,22.5,9.6,29.89,SSE,157,3.7,-999.0,57,-99.99,,,0.00,Acu-Link.com,2013-02-01 16:35:00,
2013-02-01 11:50:00,23.5,8.9,29.88,West,270,5.8,-999.0,53,-99.99,,,0.00,Acu-Link.com,2013-02-01 16:50:00,
2013-02-01 12:05:00,23.0,8.5,29.88,West,270,3.7,-999.0,53,-99.99,,,0.00,Acu-Link.com,2013-02-01 17:05:00,
2013-02-01 12:20:00,24.4,8.9,29.89,West,270,12.5,-999.0,51,-99.99,,,0.00,Acu-Link.com,2013-02-01 17:20:00,
2013-02-01 12:35:00,23.2,11.4,29.89,West,270,16.6,-999.0,60,-99.99,,,0.00,Acu-Link.com,2013-02-01 17:35:00,
2013-02-01 12:50:00,24.1,11.5,29.88,ENE,67,12.5,-999.0,58,-99.99,,,0.00,Acu-Link.com,2013-02-01 17:50:00,
2013-02-01 13:06:00,23.9,12.4,29.89,West,270,11.9,-999.0,61,-99.99,,,0.00,Acu-Link.com,2013-02-01 18:06:00,
2013-02-01 13:21:00,23.4,13.0,29.89,WSW,247,2.7,-999.0,64,-99.99,,,0.00,Acu-Link.com,2013-02-01 18:21:00,
2013-02-01 13:36:00,23.2,13.2,29.91,West,270,8.9,-999.0,65,-99.99,,,0.00,Acu-Link.com,2013-02-01 18:36:00,
2013-02-01 13:51:00,25.5,12.4,29.90,WSW,247,5.3,-999.0,57,-99.99,,,0.00,Acu-Link.com,2013-02-01 18:51:00,
2013-02-01 14:06:00,24.8,12.1,29.91,WSW,247,10.4,-999.0,58,-99.99,,,0.00,Acu-Link.com,2013-02-01 19:06:00,
2013-02-01 14:21:00,25.2,11.3,29.92,ENE,67,8.9,-999.0,55,-99.99,,,0.00,Acu-Link.com,2013-02-01 19:21:00,
2013-02-01 14:36:00,24.6,10.4,29.92,WNW,292,8.9,-999.0,54,-99.99,,,0.00,Acu-Link.com,2013-02-01 19:36:00,
2013-02-01 14:51:00,23.7,11.1,29.93,West,270,10.4,-999.0,58,-99.99,,,0.00,Acu-Link.com,2013-02-01 19:51:00,
2013-02-01 15:06:00,24.1,10.3,29.93,NE,45,11.9,-999.0,55,-99.99,,,0.00,Acu-Link.com,2013-02-01 20:06:00,
2013-02-01 15:22:00,24.1,8.6,29.93,West,270,12.5,-999.0,51,-99.99,,,0.00,Acu-Link.com,2013-02-01 20:22:00,
2013-02-01 15:37:00,23.7,6.5,29.95,West,270,5.8,-999.0,47,-99.99,,,0.00,Acu-Link.com,2013-02-01 20:37:00,
2013-02-01 15:52:00,23.7,5.5,29.95,East,90,16.6,-999.0,45,-99.99,,,0.00,Acu-Link.com,2013-02-01 20:52:00,
2013-02-01 16:07:00,23.7,5.0,29.96,NW,315,6.3,-999.0,44,-99.99,,,0.00,Acu-Link.com,2013-02-01 21:07:00,
2013-02-01 16:22:00,23.5,5.8,29.97,WNW,292,5.3,-999.0,46,-99.99,,,0.00,Acu-Link.com,2013-02-01 21:22:00,
2013-02-01 16:37:00,23.2,5.0,29.98,NW,315,2.7,-999.0,45,-99.99,,,0.00,Acu-Link.com,2013-02-01 21:37:00,
2013-02-01 16:52:00,22.6,4.5,29.98,WNW,292,11.9,-999.0,45,-99.99,,,0.00,Acu-Link.com,2013-02-01 21:52:00,
2013-02-01 17:07:00,22.3,5.2,29.98,West,270,7.8,-999.0,47,-99.99,,,0.00,Acu-Link.com,2013-02-01 22:07:00,
2013-02-01 17:22:00,21.7,5.1,29.98,West,270,5.8,-999.0,48,-99.99,,,0.00,Acu-Link.com,2013-02-01 22:22:00,
2013-02-01 17:38:00,21.2,5.9,29.98,NW,315,2.7,-999.0,51,-99.99,,,0.00,Acu-Link.com,2013-02-01 22:38:00,
2013-02-01 17:53:00,21.0,4.9,29.99,NNW,337,11.4,-999.0,49,-99.99,,,0.00,Acu-Link.com,2013-02-01 22:53:00,
2013-02-01 18:08:00,21.0,5.3,29.99,West,270,4.2,-999.0,50,-99.99,,,0.00,Acu-Link.com,2013-02-01 23:08:00,
2013-02-01 18:23:00,20.7,5.0,30.00,NNE,22,6.8,-999.0,50,-99.99,,,0.00,Acu-Link.com,2013-02-01 23:23:00,
2013-02-01 18:38:00,20.5,4.9,29.99,NNE,22,16.1,-999.0,50,-99.99,,,0.00,Acu-Link.com,2013-02-01 23:38:00,
2013-02-01 18:53:00,19.9,4.7,30.00,SW,225,9.4,-999.0,51,-99.99,,,0.00,Acu-Link.com,2013-02-01 23:53:00,
2013-02-01 19:08:00,19.8,4.2,30.01,West,270,7.8,-999.0,50,-99.99,,,0.00,Acu-Link.com,2013-02-02 00:08:00,
2013-02-01 19:23:00,19.6,4.4,30.02,NW,315,2.2,-999.0,51,-99.99,,,0.00,Acu-Link.com,2013-02-02 00:23:00,
2013-02-01 19:39:00,19.2,4.5,30.03,West,270,3.2,-999.0,52,-99.99,,,0.00,Acu-Link.com,2013-02-02 00:39:00,
2013-02-01 19:54:00,19.4,5.1,30.04,ESE,112,1.1,-999.0,53,-99.99,,,0.00,Acu-Link.com,2013-02-02 00:54:00,
2013-02-01 20:09:00,18.9,6.2,30.05,SSW,202,2.7,-999.0,57,-99.99,,,0.00,Acu-Link.com,2013-02-02 01:09:00,
2013-02-01 20:24:00,18.5,7.7,30.07,West,270,7.8,-999.0,62,-99.99,,,0.00,Acu-Link.com,2013-02-02 01:24:00,
2013-02-01 20:39:00,18.3,8.2,30.07,South,180,2.2,-999.0,64,-99.99,,,0.00,Acu-Link.com,2013-02-02 01:39:00,
2013-02-01 20:54:00,18.3,7.1,30.08,SE,135,1.7,-999.0,61,-99.99,,,0.00,Acu-Link.com,2013-02-02 01:54:00,
2013-02-01 21:09:00,17.8,6.3,30.09,NNW,337,3.7,-999.0,60,-99.99,,,0.00,Acu-Link.com,2013-02-02 02:09:00,
2013-02-01 21:24:00,17.8,6.3,30.09,WSW,247,3.7,-999.0,60,-99.99,,,0.00,Acu-Link.com,2013-02-02 02:24:00,
2013-02-01 21:39:00,18.0,6.5,30.09,SSE,157,4.2,-999.0,60,-99.99,,,0.00,Acu-Link.com,2013-02-02 02:39:00,
2013-02-01 21:55:00,17.6,6.5,30.09,SW,225,5.8,-999.0,61,-99.99,,,0.00,Acu-Link.com,2013-02-02 02:55:00,
2013-02-01 22:10:00,17.4,5.9,30.10,SSE,157,1.7,-999.0,60,-99.99,,,0.00,Acu-Link.com,2013-02-02 03:10:00,
2013-02-01 22:25:00,17.1,5.6,30.10,SSE,157,3.2,-999.0,60,-99.99,,,0.00,Acu-Link.com,2013-02-02 03:25:00,
2013-02-01 22:40:00,16.5,5.1,30.11,NNE,22,3.2,-999.0,60,-99.99,,,0.00,Acu-Link.com,2013-02-02 03:40:00,
2013-02-01 22:55:00,16.2,4.8,30.12,NW,315,3.7,-999.0,60,-99.99,,,0.00,Acu-Link.com,2013-02-02 03:55:00,
2013-02-01 23:10:00,16.0,4.6,30.12,SSE,157,2.7,-999.0,60,-99.99,,,0.00,Acu-Link.com,2013-02-02 04:10:00,
2013-02-01 23:25:00,16.0,5.3,30.13,East,90,3.7,-999.0,62,-99.99,,,0.00,Acu-Link.com,2013-02-02 04:25:00,
2013-02-01 23:40:00,15.3,5.3,30.13,West,270,0.0,-999.0,64,-99.99,,,0.00,Acu-Link.com,2013-02-02 04:40:00,
2013-02-01 23:55:00,15.1,4.8,30.14,NNE,22,1.7,-999.0,63,-99.99,,,0.00,Acu-Link.com,2013-02-02 04:55:00,